Location: Unspecified
(52.4292°N, 19.3359°E)
Time: 16:29:54
(UTC+02:00)

Transit 2A Rocket - Pass Details

Date: 22 May 2024
Orbit: 583 x 910 km, 66.7° (Epoch: 22 June)

Event Time Altitude Azimuth Distance (km) Brightness Sun altitude
Rises 14:07:52 0° 315° (NW) 3,422 8.3 53.8°
Reaches altitude 10° 14:10:37 10° 304° (NW) 2,522 7.8 53.6°
Maximum altitude 14:15:27 27° 249° (WSW) 1,651 7.8 53.1°
Drops below altitude 10° 14:20:25 10° 194° (SSW) 2,589 8.4 52.6°
Sets 14:23:18 0° 182° (S) 3,528 8.8 52.3°
